CZ-6A DEB, 61102

Orbit data source: Space-Track

CZ-6A DEB, 61102 is space debris in LEO originally from a launch on Tue, 06 Aug 2024 UTC launched from the Taiyaun Space Center, China (TSC). Debris objects in space refer to the collection of defunct objects orbiting the Earth. Examples of debris include non-operational satellites, rocket bodies, and fragments generated from explosions, collisions, or faulty payload assembly.

Loading next visibility...
Identifier
61102, 2024-140NU
Orbit
LEO
Country
Flag of CNCN / PRC
Related business
Manufacturer
SAST
Mission
Spacecraft
Bus & Motor
Unknown
Mass
Unknown
Launch date (UTC)
2024-08-06 (2 years ago)
Launch vehicle
Unknown
Launch site
Taiyaun Space Center, China (TSC)
Object type
Payload
Rocket body
Debris
Shape & HBR
Unknown shape, 0.1 m
Radar Cross Section
Small (<0.1 m²)

Expand to show TLE details & history
Last TLE update: 15 hours ago

TLE from 15 hours ago
0 CZ-6A DEB
1 61102U 24140NU  26118.38322065  .00009594  00000-0  90736-3 0  9993
2 61102  88.7269 251.4855 0127029 305.2958  53.6440 14.87595683 89842
Epoch: 2026-04-28T09:11Z
TLE epoch observation values (Epoch: 2026-04-28T09:11:50.264Z)
Latitude
-0.00007°
Longitude
-102.83326°
Altitude
556.738 km
Speed
7.611 km/s
True Right ascension
16h 45m 56s
True Declination
0° 00' 00"
Sunlit
Object was in full shadow at epoch
Visualization orbit readout
Latitude
Unknown
Longitude
Unknown
Altitude
Unknown
Speed
Unknown
Apparent Right ascension
Unknown
Apparent Declination
Unknown
Sunlit
N/A
Visualization observer readout
Local Sidereal Time
07:29:45
Azimuth
Unknown
Elevation
Unknown
Doppler factor
Unknown
Orbital elements
Apogee altitude
690.978 km
Perigee altitude
513.634 km
Semi-major axis
6,980.443 km
Eccentricity
0.0127
Inclination
88.7269°
RAAN
251.4855°
Arg. of periapsis
305.2958°
True anomaly
54.82735°
Mean anomaly
53.644°
Eccentric anomaly
54.23457°
Mean motion
3.72151 °/min
Orbital period
96.74 mins
BSTAR
0.00090736
Loading maneuver chart data...
Computing Atmospheric mass density...
Loading historical data...
Loading historical data...
Loading historical data...
Loading historical data...
Loading historical data...
Loading historical data...
Loading historical data...

Documentation

Showing up to 5 results
|